Regional Weather Roundup
Issued by NWS

Home | Current Version | Previous Version | Text Only | Print | Product List | Glossary Off
Versions: 1 2 3 4 5 6 7 8 9 10 11 12 13 14 15 16 17 18 19 20 21 22 23 24 25 26 27 28 29 30 31 32 33 34 35 36 37 38 39 40 41 42 43 44 45 46 47 48 49 50

000
ASUS45 KBOI 291710
RWRID

IDAHO REGIONAL WEATHER ROUNDUP
NATIONAL WEATHER SERVICE BOISE ID
1100 AM MDT SAT AUG 29 2015

NOTE: "FAIR" INDICATES FEW OR NO CLOUDS BELOW 12000 FEET
WITH NO SIGNIFICANT WEATHER AND/OR OBSTRUCTIONS TO VISIBILITY

IDZ012-014-291800-
SOUTHWEST IDAHO


CITY           SKY/WX    TMP DP  RH WIND       PRES   REMARKS
BOISE          CLOUDY    83  43  24 SE8       29.88R
CALDWELL       CLOUDY    72  46  40 E8        29.85S
MOUNTAIN HOME  CLOUDY    78  47  32 E5        29.90R
$$

IDZ016-017-291800-
SOUTHCENTRAL IDAHO


CITY           SKY/WX    TMP DP  RH WIND       PRES   REMARKS
JEROME         CLOUDY    81  47  30 S3        29.98S
TWIN FALLS     CLOUDY    89  42  19 SW10G22   29.98R
$$

IDZ019>023-291800-
SOUTHEAST IDAHO


CITY           SKY/WX    TMP DP  RH WIND       PRES   REMARKS
IDAHO FALLS    PTSUNNY   81  45  28 S12       30.05F
POCATELLO      PTSUNNY   89  38  16 S20G32    30.01F
REXBURG        CLOUDY    80  42  25 S13G28    30.06F
$$

IDZ006-010-011-018-031-032-291800-
CENTRAL IDAHO MOUNTAINS


CITY           SKY/WX    TMP DP  RH WIND       PRES   REMARKS
MCCALL         CLOUDY    72  44  36 SW6       29.98R
HAILEY         PTSUNNY   73  50  43 CALM      30.08S
STANLEY          N/A     73  42  32 SE12      30.10R
SALMON         CLOUDY    70  48  46 NE7       29.90F
CHALLIS        CLOUDY    71  45  39 VRB3      29.99F
$$

IDZ002-004-006-007-026-291800-
NORTHERN IDAHO


CITY           SKY/WX    TMP DP  RH WIND       PRES   REMARKS
LEWISTON       CLOUDY    81  47  30 N7        29.65R HAZE
LOWELL           N/A     62  53  72 VRB7      29.75S
COEUR D`ALENE  PTSUNNY   72  48  43 NE9       29.66S
MULLAN PASS    CLOUDY    66  37  34 VRB3      29.92F HAZE
$$


USA.gov is the U.S. government's official web portal to all federal, state and local government web resources and services.